Theta_e
300 299 299 299 299 299 299 299 299 299 300 300 300 301 301 302 304 305 308 312 312 314 314 313 312 314 317 318 318 318 314 315 316 318 319 320 318 320 321 321 320 321 321 321 328
300 299 298 298 298 298 298 298 299 299 299 300 300 300 300 301 303 306 313 314 313 312 312 313 313 317 318 318 317 315 313 316 318 319 319 320 318 320 320 319 320 320 324 325 328
301 300 298 298 298 298 298 298 298 298 299 299 300 300 300 300 303 315 312 313 314 314 312 311 312 317 318 318 318 317 316 317 319 320 320 318 317 320 318 317 319 320 321 324 327
302 302 301 299 298 298 298 298 298 298 299 299 299 299 300 300 308 314 309 309 311 312 309 315 312 313 317 317 319 315 317 318 318 320 319 317 319 318 319 319 320 319 319 323 326
302 302 302 301 300 298 298 298 298 298 298 299 298 298 299 304 304 306 308 310 310 310 309 313 316 317 317 318 318 317 317 319 319 319 319 319 319 319 319 320 320 319 319 322 325
302 302 301 300 300 299 298 298 298 298 298 298 298 298 301 308 306 309 310 310 309 311 315 317 317 318 318 318 317 318 318 318 319 319 319 319 319 320 320 320 320 320 319 322 326
302 301 301 300 300 299 298 298 298 298 298 298 298 299 302 302 305 305 308 310 311 310 311 314 317 318 318 318 320 320 318 318 318 318 318 319 318 318 320 321 320 320 320 324 327
300 300 301 301 301 301 299 298 298 298 298 298 301 303 305 304 306 305 308 308 309 309 310 313 313 315 317 319 319 318 317 317 318 318 319 319 319 320 321 321 320 320 321 323 327
298 299 300 301 301 300 299 298 298 298 298 298 304 306 310 309 311 309 310 309 308 307 309 311 313 314 316 316 316 317 318 317 318 318 319 319 319 319 321 321 321 322 322 323 326
300 298 298 301 301 300 297 297 299 305 303 308 310 310 308 308 309 309 312 311 314 313 308 310 309 309 313 314 318 317 318 318 319 319 319 318 318 318 321 320 322 323 324 324 327
301 299 299 301 301 299 296 301 308 308 307 313 313 308 310 313 312 311 307 310 310 315 308 309 306 306 307 313 315 316 317 318 318 318 320 319 319 319 318 319 318 323 323 323 324
298 299 297 300 300 298 301 305 306 306 306 305 305 308 311 310 310 307 306 306 311 316 315 309 308 308 309 310 314 315 316 315 316 317 319 320 319 319 318 319 320 320 320 322 329
298 297 296 298 300 298 303 304 305 305 304 303 303 303 304 304 305 304 306 307 309 314 317 315 315 311 310 310 311 312 314 316 316 318 320 320 321 318 320 320 321 321 321 322 330
297 298 298 297 299 299 301 303 305 305 306 305 306 306 305 306 309 310 309 307 309 310 314 316 316 315 310 311 312 312 313 315 318 320 321 321 323 320 320 320 320 320 321 321 330
297 298 297 297 298 298 300 302 304 305 306 305 308 311 309 309 312 312 311 309 308 309 312 313 314 315 315 315 313 313 314 315 316 318 319 321 322 319 320 322 321 317 321 320 331
298 297 297 297 298 298 301 303 303 305 306 306 312 311 311 311 311 312 311 310 310 309 309 309 311 311 313 314 314 316 316 317 317 318 321 322 321 319 320 322 322 321 322 321 330
296 297 296 297 297 299 300 301 303 305 303 303 306 312 312 314 313 313 314 310 309 310 309 309 309 309 311 311 313 314 314 319 321 319 319 320 321 320 320 321 321 322 322 323 330
296 296 296 297 297 299 300 301 304 303 301 304 307 308 312 312 313 313 312 313 311 311 310 309 310 309 311 311 314 315 315 319 321 323 322 321 326 323 322 322 322 322 323 326 330
295 296 295 296 298 299 300 301 301 302 304 304 305 307 308 311 310 313 313 313 313 312 313 314 313 316 311 310 314 316 316 315 319 320 324 324 322 322 323 323 323 321 324 328 329
296 296 296 297 298 300 302 300 302 303 303 303 304 307 307 307 312 311 312 315 314 313 313 317 318 317 317 311 312 315 316 317 318 319 320 321 325 327 323 323 324 323 321 326 329
295 296 297 299 299 300 300 299 300 301 302 303 303 303 305 308 309 312 311 312 310 310 308 314 315 317 317 312 313 314 315 314 317 318 319 320 321 322 324 322 321 321 320 321 328
295 296 300 300 301 300 300 300 300 301 302 303 303 302 303 305 307 308 310 311 309 310 309 309 312 318 318 316 316 314 314 313 315 314 317 318 318 321 321 321 320 321 321 320 320
296 297 298 299 301 298 300 301 300 301 302 303 303 303 303 303 304 308 308 309 309 309 308 308 311 315 320 316 316 317 317 318 313 314 315 317 318 320 321 319 320 321 320 319 319
296 297 300 300 300 301 301 303 303 303 302 302 303 302 302 302 304 306 306 307 307 309 308 309 308 308 311 314 313 311 312 318 316 315 314 314 315 321 321 321 319 318 317 319 318
296 296 298 300 301 300 301 302 302 303 303 302 302 301 301 301 302 303 304 304 305 307 307 308 309 309 309 309 308 308 308 312 314 317 320 319 317 318 320 319 317 316 320 321 321
296 296 298 298 299 300 301 302 302 301 302 303 303 302 301 300 301 301 302 302 307 307 307 308 310 311 310 311 310 309 308 308 309 310 311 312 312 313 315 316 315 321 321 321 322
294 296 296 297 297 297 298 301 302 302 302 302 303 303 303 304 305 304 305 305 306 306 308 309 309 310 312 311 311 310 309 309 309 309 308 308 310 311 310 316 318 318 317 318 319
Wind_Speed
19 19 18 16 16 16 16 17 19 20 20 21 20 22 22 24 25 26 27 21 18 11 14 11 9 13 14 17 20 17 3 12 11 14 17 15 5 5 6 5 10 15 21 19 18
19 19 18 18 18 18 18 18 18 19 20 22 23 23 22 25 27 27 19 20 14 18 18 18 17 12 16 11 12 10 4 14 12 17 12 17 11 11 3 6 6 12 3 13 18
20 19 18 18 19 20 20 20 20 20 20 21 23 24 22 22 24 3 7 9 4 9 19 22 18 21 24 25 26 12 14 14 20 27 27 13 15 20 9 6 12 6 7 8 14
21 21 22 21 20 20 20 21 21 21 22 22 23 25 23 17 6 5 14 18 15 16 11 14 19 24 9 10 29 13 21 22 25 33 27 12 19 11 15 14 18 19 14 7 7
21 24 24 25 24 23 22 22 21 21 22 23 23 25 24 9 27 16 17 15 16 14 14 13 14 19 12 8 20 15 15 25 31 31 29 32 12 15 24 26 22 22 18 12 8
22 23 25 27 28 27 26 25 23 21 21 22 23 23 16 9 16 3 4 14 12 11 11 16 16 20 19 14 12 19 20 22 20 21 22 15 11 16 28 27 25 25 24 17 10
23 25 27 28 29 31 29 27 25 23 21 21 22 21 17 39 22 21 17 14 9 13 16 19 20 24 15 8 22 18 12 14 14 13 11 23 14 16 32 34 33 31 28 16 10
25 25 25 27 29 33 34 29 26 22 21 22 21 16 15 22 18 22 15 21 20 20 18 14 22 22 12 15 17 7 7 7 5 7 15 15 21 23 32 34 28 35 21 14 12
28 27 27 27 29 32 36 30 24 17 20 20 18 11 15 9 13 4 6 12 9 15 18 15 13 10 10 3 5 4 10 15 14 11 11 9 18 19 34 17 10 15 17 21 22
25 26 26 28 30 30 35 25 16 13 14 11 11 9 17 20 1 4 10 10 11 14 17 18 10 4 2 3 11 7 11 13 17 13 13 16 20 18 18 18 19 20 25 25 30
24 26 24 26 29 29 28 23 11 6 6 10 10 16 20 12 18 20 13 13 14 17 9 17 7 11 11 13 15 11 13 17 13 12 11 11 14 13 10 8 9 24 26 29 29
26 26 27 25 27 24 16 11 12 11 15 25 33 43 47 36 28 44 22 15 13 13 8 9 20 15 13 12 17 19 20 20 19 14 15 15 17 16 11 6 13 16 20 29 29
24 23 25 23 22 15 15 17 16 14 7 19 30 29 33 24 33 51 23 25 14 14 15 17 8 18 17 17 18 18 17 12 17 14 13 13 19 13 11 8 22 31 30 15 39
23 21 24 19 16 12 16 14 15 10 4 10 10 12 19 15 9 25 33 23 10 16 12 16 15 19 20 20 18 17 12 16 17 9 8 0 17 16 16 19 15 25 31 26 35
23 24 21 17 17 21 15 16 18 6 5 8 9 5 7 18 3 7 19 27 21 17 9 17 8 13 19 18 19 15 11 13 13 10 7 4 11 5 12 21 19 9 22 31 46
20 20 16 19 18 16 22 12 12 4 8 7 9 8 8 13 9 1 10 21 9 12 15 17 18 7 6 12 12 6 4 8 9 2 9 10 12 4 10 16 15 16 23 31 46
20 23 21 17 23 14 22 14 3 5 9 9 6 10 17 13 12 12 10 12 8 6 14 14 21 17 11 10 13 9 7 1 2 2 6 8 11 12 15 19 23 18 15 21 41
19 22 24 21 17 14 18 4 8 10 16 18 16 14 12 14 19 16 11 10 14 12 4 8 5 17 11 15 7 6 7 6 8 5 3 9 7 6 10 17 29 23 16 24 38
21 22 21 20 17 14 12 3 5 7 5 16 21 8 5 11 4 3 11 7 9 15 8 4 7 3 8 19 10 6 9 9 10 4 3 4 6 10 15 21 11 6 7 27 34
18 18 26 18 15 16 5 10 11 13 19 17 14 8 10 13 11 14 4 3 8 3 4 2 3 4 10 14 12 11 4 8 6 13 7 5 5 3 16 13 5 15 6 26 36
15 9 13 8 16 12 6 5 12 23 21 11 15 14 14 8 6 4 9 8 10 13 8 1 1 5 6 2 15 5 11 2 3 9 5 2 4 6 4 7 10 14 15 22 23
6 3 5 6 8 4 2 5 9 22 30 20 7 7 10 14 5 10 4 1 6 15 6 6 1 1 7 10 10 8 7 9 8 5 3 7 7 7 9 7 10 13 29 28 26
6 11 13 7 3 3 5 14 19 19 20 12 10 5 9 9 6 8 2 3 10 8 8 6 3 1 2 11 14 2 1 3 9 6 10 3 3 6 13 11 19 7 30 29 29
4 4 5 7 9 3 5 6 12 19 16 18 8 11 6 7 10 5 8 4 3 3 8 6 3 5 3 3 6 7 11 8 9 4 6 6 6 9 9 6 10 8 4 14 23
5 4 6 4 4 8 10 10 14 7 6 15 3 6 8 9 10 7 12 10 16 5 4 5 4 6 6 9 10 12 10 3 8 12 2 5 7 6 10 10 20 12 23 26 31
3 4 7 8 12 8 3 4 12 14 5 8 9 8 7 8 10 10 12 8 3 7 1 3 5 7 6 5 8 14 12 9 9 10 5 5 10 3 4 12 7 21 21 25 30
11 18 10 7 5 5 3 12 10 18 12 8 10 11 11 7 10 21 24 4 1 5 7 2 1 3 3 7 10 6 7 10 11 8 4 5 8 11 7 11 17 21 22 22 23
Wind_Direction
333 331 330 327 329 328 330 329 328 326 325 324 323 322 324 315 304 299 285 285 273 252 262 270 252 217 211 246 239 252 230 255 254 261 267 321 8 285 210 214 244 260 244 248 192
334 330 326 323 322 321 323 323 323 323 324 324 324 324 326 322 312 300 296 276 252 260 250 245 248 228 231 242 238 216 190 243 257 268 285 307 312 303 322 272 262 283 94 173 175
337 333 326 319 318 317 318 318 320 321 322 323 323 322 326 326 317 297 51 30 337 264 251 252 248 229 227 237 243 236 233 250 260 271 278 293 314 317 311 296 277 297 315 191 184
333 336 334 327 317 312 313 313 316 316 318 320 323 319 323 325 293 223 322 319 310 285 289 235 222 248 234 231 241 249 252 248 254 256 272 282 297 300 286 276 292 296 297 223 192
326 327 330 329 324 315 307 306 308 311 313 315 318 318 322 304 266 267 286 302 294 288 260 223 223 242 239 242 247 248 256 262 261 264 263 270 273 275 277 278 280 280 275 242 224
319 321 324 325 324 320 312 305 303 303 305 308 312 312 312 273 304 286 304 281 278 276 275 234 237 243 256 242 243 259 259 266 282 289 288 270 262 272 278 284 263 258 255 233 220
317 316 318 317 319 320 315 309 301 300 302 302 304 301 281 264 286 273 254 251 264 243 254 254 252 254 274 292 265 273 290 283 280 278 289 288 285 267 268 271 265 255 246 212 207
313 317 320 319 320 322 320 306 302 301 295 293 297 290 256 284 292 264 247 257 243 253 257 257 259 273 279 287 289 303 288 275 280 271 268 253 265 265 264 262 260 246 213 219 219
304 304 311 314 317 323 325 311 304 296 281 286 290 261 265 277 276 284 264 265 278 255 250 257 278 270 273 283 302 257 260 272 281 270 269 262 274 265 251 270 180 178 214 232 217
320 315 302 311 315 326 327 320 321 284 275 276 251 280 262 256 244 281 249 265 277 261 248 232 258 226 197 196 226 219 251 254 258 258 254 270 275 262 236 255 235 211 215 215 208
313 318 309 312 317 328 329 347 6 332 322 231 227 228 265 258 265 269 279 284 258 250 229 211 206 217 207 220 239 257 258 263 277 289 300 292 304 303 234 253 243 238 227 226 222
306 311 313 306 314 324 332 333 343 312 299 275 259 255 252 258 279 267 252 278 241 221 232 235 230 218 224 234 232 235 246 260 276 285 293 305 304 296 286 239 273 272 253 233 162
317 314 314 300 317 317 316 308 320 306 281 280 249 249 247 235 244 256 247 241 238 240 221 232 232 210 221 231 243 246 241 250 252 256 255 304 294 299 292 260 262 265 268 250 170
305 317 319 299 315 318 300 352 334 337 279 275 215 246 219 221 256 247 237 219 219 242 238 239 234 234 216 232 227 245 248 254 266 269 281 289 287 289 297 290 255 246 249 240 172
296 297 306 294 296 298 314 304 322 308 282 255 179 188 190 183 303 206 217 205 222 228 190 234 226 228 237 230 218 236 226 249 268 236 256 261 275 274 288 287 269 256 260 218 178
284 279 289 290 274 273 309 295 302 236 245 263 153 179 154 205 257 160 173 201 230 232 252 258 278 265 252 274 260 235 246 242 260 106 262 253 236 222 243 268 294 281 273 206 173
293 283 277 282 265 258 294 317 226 227 267 233 259 204 190 203 222 233 184 190 206 182 226 254 253 266 262 289 288 223 221 185 335 251 243 210 256 252 256 247 249 280 177 159 170
299 286 274 269 260 262 283 246 226 231 241 308 340 334 258 214 220 211 202 197 207 242 219 200 262 217 231 217 212 213 186 160 205 208 247 234 245 252 283 262 257 264 177 155 161
299 289 276 265 250 251 266 216 226 230 276 344 323 290 243 205 264 303 211 220 212 204 218 250 226 19 237 217 207 217 238 204 236 270 99 247 287 313 356 335 4 268 146 149 160
307 307 277 270 252 237 230 237 241 288 324 328 310 302 334 10 7 359 236 11 289 40 131 223 279 263 311 195 226 195 197 196 202 234 249 235 227 188 327 3 23 310 345 166 170
296 301 305 253 210 224 217 224 280 278 292 292 309 327 337 11 348 272 323 11 3 341 326 308 210 300 9 155 195 189 221 110 8 247 206 257 265 204 215 311 0 322 351 22 183
275 265 311 304 187 219 217 252 250 283 295 290 258 297 302 322 326 341 340 213 56 326 340 325 145 66 285 357 330 227 209 176 213 224 251 221 258 207 152 99 334 352 330 348 3
271 276 283 275 203 233 264 261 252 263 273 289 303 299 318 309 318 344 93 10 52 36 345 319 327 146 71 6 341 355 228 263 218 200 236 179 260 99 59 43 324 104 300 349 357
291 301 262 219 230 278 288 281 290 280 261 275 293 319 315 314 306 312 292 18 30 82 312 337 323 33 75 152 212 308 2 25 353 226 221 231 267 113 79 320 233 311 7 298 344
223 256 289 332 11 304 294 280 288 302 308 323 293 272 289 299 308 304 310 320 344 288 340 8 334 353 348 335 331 319 326 30 331 295 326 314 308 51 122 230 276 360 30 21 24
252 246 327 316 318 355 279 300 275 289 239 310 313 288 289 262 267 287 300 321 22 337 201 340 331 344 323 335 296 293 281 277 280 287 270 296 288 331 217 222 9 61 46 28 27
247 256 286 288 331 331 287 324 320 319 311 260 263 293 292 315 352 303 307 221 220 323 338 41 37 358 301 332 331 301 248 259 266 276 274 289 303 298 309 24 66 55 43 31 22